パンスターズ彗星

466P/PanSTARRS (2023)

English version
Home page
Updated on October 24, 2023

---------------------------------------------------------------------

・ プロフィール

符号 466P/2023 M3
検出日 2023年6月26日
検出光度 19.1等
検出者 Jacqueline B. Fazekas (Mt. Lemmon Survey)

・ 写真集

・ 軌道要素

Epoch 2023 Feb. 25.0 TT = JDT 2460000.5                                         
T 2023 May 3.66076 TT                                   Rudenko                 
q   2.1546162            (2000.0)            P               Q                  
n   0.12136068     Peri.  196.69789     +0.72051342     +0.66864115             
a   4.0403350      Node   119.86870     -0.60953817     +0.73706058             
e   0.4667234      Incl.   12.23633     -0.33064123     +0.09828892             
P   8.12                                                                        
>From 99 observations 2015 Sept. 17-2023 July 3, mean residual 0".7.             

・ 光度変化

        m1 = 14.0 + 5 logΔ + 10.0 log r

---------------------------------------------------------------------

軌道要素はM.P.E.C. 2023-N18に掲載されたものです。
光度グラフはComet for Windowsで作成したものです。

---------------------------------------------------------------------

Copyright(C) Seiichi Yoshida (comet@aerith.net). All rights reserved.